Location: Berg
(48.4333°N, 13.9167°E)
Time: 06:03:16
(UTC+00:00)

MOS 1 Rocket - Pass Details

Date: 18 September 2020
Orbit: 614 x 831 km, 97.4° (Epoch: 22 October)

Event Time Altitude Azimuth Distance (km) Brightness Sun altitude
Rises 18:56:39 0° 7° (N) 3,044 6.8 -18.0°
Reaches altitude 10° 18:59:01 10° 1° (N) 2,093 6.1 -18.3°
Maximum altitude 19:03:17 43° 291° (WNW) 909 4.4 -19.0°
Drops below altitude 10° 19:07:23 10° 220° (SW) 1,994 5.8 -19.6°
Sets 19:09:36 0° 213° (SSW) 2,883 6.6 -19.9°
